CW7858 Weather Reports


Display with metric or nautical units.
time (UTC)temp
F
wind
direction
speed
MPH
gust
MPH
rain 1hr
in
rain 24hr
in
rain mn
in
humidity
%
barometer
mb
20181216035232 51 280 1.0 3.0 0.00 0.00 0.00 77 1018.0
20181216034229 50 210 0.0 2.0 0.00 0.00 0.00 77 1018.1
20181216033226 50 232 1.0 2.0 0.00 0.00 0.00 77 1018.1
20181216032242 50 200 0.0 3.0 0.00 0.00 0.00 77 1018.3
20181216031238 50 203 0.0 2.0 0.00 0.00 0.00 76 1018.3
20181216030238 50 210 1.0 3.0 0.00 0.00 0.00 76 1018.3
20181216025252 50 217 1.0 6.0 0.00 0.00 0.00 76 1018.6
20181216024238 50 258 2.0 6.0 0.00 0.00 0.00 77 1018.6
20181216023234 50 220 3.0 5.0 0.00 0.00 0.00 77 1018.6
20181216022239 50 241 2.0 5.0 0.00 0.00 0.00 77 1018.6
20181216021234 50 244 1.0 3.0 0.00 0.00 0.00 76 1018.7
20181216020241 50 203 0.0 5.0 0.00 0.00 0.00 76 1018.7
20181216015236 51 258 2.0 5.0 0.00 0.00 0.00 75 1018.7
20181216014234 51 230 1.0 2.0 0.00 0.00 0.00 75 1018.7
20181216013231 51 215 1.0 3.0 0.00 0.00 0.00 75 1018.7
20181216012231 51 223 1.0 3.0 0.00 0.00 0.00 75 1019.0
20181216011246 51 215 1.0 5.0 0.00 0.00 0.00 74 1018.9
20181216010242 51 219 1.0 4.0 0.00 0.00 0.00 74 1018.9
20181216005237 51 243 2.0 5.0 0.00 0.00 0.00 74 1019.1
20181216004232 51 229 1.0 3.0 0.00 0.00 0.00 73 1019.2
20181216003228 51 222 2.0 3.0 0.00 0.00 0.00 73 1019.2
20181216002253 52 178 1.0 4.0 0.00 0.00 0.00 72 1019.3
20181216001244 52 222 1.0 5.0 0.00 0.00 0.00 72 1019.5
20181216000241 52 230 2.0 4.0 0.00 0.00 0.00 72 1019.5
20181215235240 52 240 2.0 3.0 0.00 0.00 0.00 73 1019.7
20181215234237 51 213 1.0 4.0 0.00 0.00 0.00 73 1019.7
20181215233233 52 217 0.0 2.0 0.00 0.00 0.00 73 1019.8
20181215232240 52 182 1.0 3.0 0.00 0.00 0.00 73 1019.9
20181215231235 52 200 1.0 5.0 0.00 0.00 0.00 72 1020.1
20181215230241 52 174 2.0 5.0 0.00 0.00 0.00 72 1020.1
20181215225241 52 213 2.0 5.0 0.00 0.00 0.00 71 1020.2
20181215224233 53 212 3.0 6.0 0.00 0.00 0.00 71 1020.3
20181215223230 53 200 1.0 2.0 0.00 0.00 0.00 70 1020.3
20181215222240 53 230 0.0 2.0 0.00 0.00 0.00 70 1020.3
20181215221239 53 216 0.0 3.0 0.00 0.00 0.00 70 1020.3
20181215220236 53 239 0.0 0.0 0.00 0.00 0.00 69 1020.3
20181215215232 53 239 0.0 2.0 0.00 0.00 0.00 69 1020.4
20181215214248 54 239 1.0 4.0 0.00 0.00 0.00 69 1020.4
20181215213245 54 236 1.0 3.0 0.00 0.00 0.00 69 1020.4
20181215212247 54 223 1.0 5.0 0.00 0.00 0.00 69 1020.6
20181215211243 54 232 1.0 5.0 0.00 0.00 0.00 68 1020.8
20181215210236 54 230 2.0 4.0 0.00 0.00 0.00 68 1020.8
20181215205232 54 199 1.0 3.0 0.00 0.00 0.00 67 1020.8
20181215204229 54 240 1.0 5.0 0.00 0.00 0.00 67 1020.8
20181215203243 54 220 1.0 5.0 0.00 0.00 0.00 66 1020.8
20181215202231 54 232 2.0 5.0 0.00 0.00 0.00 65 1020.8
20181215201256 55 244 2.0 6.0 0.00 0.00 0.00 64 1020.8
20181215200247 55 148 2.0 6.0 0.00 0.00 0.00 64 1020.8
20181215195242 55 203 2.0 5.0 0.00 0.00 0.00 63 1020.8
20181215194239 55 205 2.0 6.0 0.00 0.00 0.00 62 1020.8
20181215193235 55 162 2.0 3.0 0.00 0.00 0.00 61 1020.8
20181215192245 55 215 2.0 6.0 0.00 0.00 0.00 60 1020.8
20181215191240 56 234 3.0 6.0 0.00 0.00 0.00 59 1020.8
20181215190250 56 248 2.0 6.0 0.00 0.00 0.00 58 1020.8
20181215185240 57 251 2.0 6.0 0.00 0.00 0.00 58 1020.8
20181215184235 57 265 2.0 6.0 0.00 0.00 0.00 56 1020.7
20181215183231 58 224 2.0 5.0 0.00 0.00 0.00 55 1020.7
20181215182241 58 234 0.0 4.0 0.00 0.00 0.00 54 1020.6
20181215181239 59 240 2.0 3.0 0.00 0.00 0.00 54 1020.5
20181215180237 59 202 1.0 3.0 0.00 0.00 0.00 54 1020.5
20181215175233 60 186 1.0 6.0 0.00 0.00 0.00 53 1020.3
20181215174231 61 191 2.0 3.0 0.00 0.00 0.00 51 1020.2
20181215173229 62 200 1.0 2.0 0.00 0.00 0.00 48 1020.2
20181215172231 63 145 1.0 2.0 0.00 0.00 0.00 45 1020.1
20181215171253 64 196 0.0 2.0 0.00 0.00 0.00 43 1020.1
20181215170242 65 196 0.0 2.0 0.00 0.00 0.00 41 1020.1
20181215165239 66 230 0.0 2.0 0.00 0.00 0.00 40 1019.9
20181215164236 67 230 1.0 3.0 0.00 0.00 0.00 38 1019.8
20181215163232 67 220 0.0 3.0 0.00 0.00 0.00 37 1019.8
20181215162240 68 195 0.0 3.0 0.00 0.00 0.00 37 1019.9
20181215161236 68 210 1.0 3.0 0.00 0.00 0.00 36 1019.9
20181215160234 68 199 1.0 3.0 0.00 0.00 0.00 35 1019.9
20181215155229 68 226 1.0 4.0 0.00 0.00 0.00 34 1020.0
20181215154242 69 209 1.0 5.0 0.00 0.00 0.00 34 1020.2
20181215153238 69 175 0.0 2.0 0.00 0.00 0.00 34 1020.2
20181215152253 69 176 0.0 2.0 0.00 0.00 0.00 33 1020.3
20181215151241 68 175 1.0 2.0 0.00 0.00 0.00 33 1020.2
20181215150248 68 217 0.0 3.0 0.00 0.00 0.00 34 1020.2
20181215145237 68 191 0.0 5.0 0.00 0.00 0.00 35 1020.2
20181215144231 67 222 2.0 3.0 0.00 0.00 0.00 35 1020.2
20181215143227 67 193 2.0 5.0 0.00 0.00 0.00 35 1020.2
20181215142236 67 253 2.0 8.0 0.00 0.00 0.00 34 1020.2
20181215141233 67 248 3.0 6.0 0.00 0.00 0.00 34 1020.3
20181215140255 67 195 2.0 5.0 0.00 0.00 0.00 34 1020.3
20181215135241 67 222 1.0 3.0 0.00 0.00 0.00 34 1020.4
20181215134235 67 199 2.0 5.0 0.00 0.00 0.00 35 1020.5
20181215133231 66 223 2.0 6.0 0.00 0.00 0.00 36 1020.5
20181215132238 65 199 1.0 6.0 0.00 0.00 0.00 37 1020.7
20181215131234 64 274 3.0 7.0 0.00 0.00 0.00 37 1021.0
20181215130232 64 264 2.0 6.0 0.00 0.00 0.00 37 1021.0
20181215125247 64 326 4.0 8.0 0.00 0.00 0.00 37 1021.2
20181215124241 64 265 5.0 8.0 0.00 0.00 0.00 37 1021.6
20181215123236 63 263 4.0 10.0 0.00 0.00 0.00 38 1021.6
20181215122238 63 277 3.0 10.0 0.00 0.00 0.00 37 1021.9
20181215121235 63 278 4.0 10.0 0.00 0.00 0.00 37 1021.9
20181215120229 62 230 5.0 7.0 0.00 0.00 0.00 38 1021.9
20181215115244 62 247 4.0 10.0 0.00 0.00 0.00 39 1022.1
20181215114239 61 229 8.0 12.0 0.00 0.00 0.00 38 1022.2
20181215113236 61 246 6.0 13.0 0.00 0.00 0.00 39 1022.2
20181215112241 61 241 5.0 13.0 0.00 0.00 0.00 40 1022.4
20181215111237 60 232 4.0 11.0 0.00 0.00 0.00 40 1022.9
20181215110302 59 174 5.0 11.0 0.00 0.00 0.00 40 1022.9
20181215105242 59 199 6.0 11.0 0.00 0.00 0.00 39 1023.1
20181215104237 59 212 5.0 9.0 0.00 0.00 0.00 37 1023.2
20181215103232 58 261 3.0 8.0 0.00 0.00 0.00 39 1023.2
20181215102241 57 251 2.0 6.0 0.00 0.00 0.00 42 1023.4
20181215101235 57 234 3.0 6.0 0.00 0.00 0.00 44 1023.3
20181215100233 56 222 3.0 7.0 0.00 0.00 0.00 46 1023.3
20181215095247 56 206 3.0 5.0 0.00 0.00 0.00 48 1022.9
20181215094241 55 185 2.0 5.0 0.00 0.00 0.00 50 1022.8
20181215093234 53 193 1.0 5.0 0.00 0.00 0.00 53 1022.8
20181215092243 51 257 4.0 6.0 0.00 0.00 0.00 55 1022.8
20181215091235 51 141 2.0 6.0 0.00 0.00 0.00 56 1022.9
20181215090234 51 233 2.0 3.0 0.00 0.00 0.00 56 1022.9
20181215085227 50 154 1.0 3.0 0.00 0.00 0.00 57 1022.8
20181215084254 49 195 1.0 4.0 0.00 0.00 0.00 59 1022.8
20181215083246 48 202 2.0 4.0 0.00 0.00 0.00 59 1022.8
20181215082246 48 169 2.0 4.0 0.00 0.00 0.00 59 1022.6
20181215081242 47 198 2.0 5.0 0.00 0.00 0.00 60 1022.4
20181215080241 47 199 1.0 6.0 0.00 0.00 0.00 60 1022.4
20181215075235 46 212 2.0 7.0 0.00 0.00 0.00 59 1022.5
20181215074243 46 250 4.0 8.0 0.00 0.00 0.00 59 1022.0
20181215073246 46 251 5.0 8.0 0.00 0.00 0.00 60 1022.0
20181215072253 45 229 4.0 8.0 0.00 0.00 0.00 62 1021.8
20181215071239 45 248 3.0 5.0 0.00 0.00 0.00 61 1021.8
20181215070238 46 216 3.0 7.0 0.00 0.00 0.00 60 1021.8
20181215065246 46 234 3.0 6.0 0.00 0.00 0.00 58 1021.7
20181215064239 47 254 2.0 7.0 0.00 0.00 0.00 56 1021.8
20181215063235 48 233 2.0 3.0 0.00 0.00 0.00 54 1021.8
20181215062243 48 239 1.0 5.0 0.00 0.00 0.00 54 1021.8
20181215061239 48 181 0.0 5.0 0.00 0.00 0.00 53 1021.7
20181215060231 48 121 2.0 4.0 0.00 0.00 0.00 52 1021.7
20181215055254 49 219 1.0 3.0 0.00 0.00 0.00 52 1021.5
20181215054242 49 241 0.0 2.0 0.00 0.00 0.00 52 1021.5
20181215053246 50 241 0.0 2.0 0.00 0.00 0.00 52 1021.5
20181215052234 50 241 2.0 6.0 0.00 0.00 0.00 50 1021.3
20181215051232 51 282 5.0 9.0 0.00 0.00 0.00 48 1020.9
20181215050247 51 302 4.0 7.0 0.00 0.00 0.00 49 1020.9
20181215045243 50 294 2.0 6.0 0.00 0.00 0.00 52 1020.9
20181215044236 49 258 2.0 4.0 0.00 0.00 0.00 54 1020.8
20181215043234 49 253 2.0 3.0 0.00 0.00 0.00 54 1020.8
20181215042237 49 193 1.0 2.0 0.00 0.00 0.00 55 1021.0
20181215041233 49 131 0.0 3.0 0.00 0.00 0.00 55 1021.1
20181215040229 49 189 2.0 6.0 0.00 0.00 0.00 55 1021.1